Location: Alafon
(8.4500°N, 4.2333°E)
Time: 09:55:55
(UTC+00:00)

A-11 Canister half - Pass Details

Date: 15 August 2021
Orbit: 1515 x 1685 km, 47.2° (Epoch: 21 September)

Event Time Altitude Azimuth Distance (km) Brightness Sun altitude
Rises 21:59:50 0° 306° (NW) 4,917 12.2 -55.3°
Reaches altitude 10° 22:03:11 10° 300° (WNW) 3,937 11.5 -55.9°
Enters shadow 22:06:44 23° 288° (WNW) 3,006 10.7 -56.6°
Maximum altitude 22:12:36 44° 232° (SW) 2,202 - -57.6°
Drops below altitude 10° 22:21:59 10° 163° (SSE) 3,911 - -59.3°
Sets 22:25:20 0° 156° (SSE) 4,882 - -59.9°
